STARLINK-34675

Last updated on Sat Aug 16 2025 00:02:05 GMT+0000 (Coordinated Universal Time)

1 64809U 25150V 25227.41232299 .00027017 00000+0 61785-3 0 9996 2 64809 69.9994 315.9788 0004030 288.2418 71.8326 15.42724044 5089
UTC large
Height (km)
Speed (km/s)
/
Latitude / Longitude
Inclination (degrees)
Orbital Period (minutes)
Azimuth
Elevation
Range (km)
Doppler Factor

Next 0 passes for location: London (51.5072 / 0.1276)

Sorry there are no passes over London.
STARLINK-34675